• Processing (Info)

  • MPEC 2019-C155: 2019 CQ5

    The following Minor Planet Electronic Circular may be linked-to from your own Web pages, but must not otherwise be redistributed electronically.

    A form allowing access to any MPEC is at the bottom of this page.


    Read MPEC 2019-C154 Read MPEC 2019-C156


    M.P.E.C. 2019-C155                               Issued 2019 Feb. 14, 04:16 UT
    
         The Minor Planet Electronic Circulars contain information on unusual
             minor planets and routine data on comets.  They are published
        on behalf of Division F of the International Astronomical Union by the
              Minor Planet Center, Smithsonian Astrophysical Observatory,
                              Cambridge, MA 02138, U.S.A.
    
                 Prepared using the Tamkin Foundation Computer Network
    
                                  MPC@CFA.HARVARD.EDU
                URL https://www.minorplanetcenter.net/    ISSN 1523-6714
    
                                       2019 CQ5
    
    Observations:
         K19C05Q* C2019 02 12.30194 11 05 10.43 +03 42 51.2                VEC155G96
         K19C05Q  C2019 02 12.30759 11 04 56.01 +03 48 18.8          19.4 GVEC155G96
         K19C05Q  C2019 02 12.31890 11 04 27.41 +03 59 09.5          19.3 GVEC155G96
         K19C05Q KC2019 02 12.35072611 03 07.47 +04 28 43.7          18.8 GVEC155V03
         K19C05Q KC2019 02 12.35225711 03 03.66 +04 30 10.6          18.8 GVEC155V03
         K19C05Q KC2019 02 12.35374211 02 59.93 +04 31 34.3          18.8 GVEC155V03
         K19C05Q  C2019 02 12.45954 10 58 40.82 +06 09 13.8          19.3 GVEC155I52
         K19C05Q  C2019 02 12.46003 10 58 39.68 +06 09 40.4          19.0 GVEC155I52
         K19C05Q  C2019 02 12.46054 10 58 38.44 +06 10 07.5          19.2 GVEC155I52
         K19C05Q  C2019 02 12.46105 10 58 37.22 +06 10 35.0          19.0 GVEC155I52
         K19C05Q  C2019 02 12.52313 10 56 12.97 +07 05 11.5          19.4 GVEC155I52
         K19C05Q  C2019 02 12.52362 10 56 11.84 +07 05 36.8          19.1 GVEC155I52
         K19C05Q  C2019 02 12.52411 10 56 10.76 +07 06 02.7          18.9 GVEC155I52
         K19C05Q  C2019 02 12.52459 10 56 09.64 +07 06 27.6          19.2 GVEC155I52
         K19C05Q pC2019 02 12.88200110 44 44.77 +11 51 39.8          19.7 GVEC155L01
         K19C05Q KC2019 02 12.88436910 44 40.09 +11 53 24.8          20.0 GVEC155L01
         K19C05Q KC2019 02 12.88555010 44 37.70 +11 54 17.1          19.8 GVEC155L01
         K19C05Q KC2019 02 12.88791310 44 33.01 +11 56 01.6          20.1 GVEC155L01
         K19C05Q KC2019 02 12.88909910 44 30.63 +11 56 54.5          19.7 GVEC155L01
         K19C05Q KC2019 02 12.95459010 42 21.87 +12 44 21.4          20.3 GVEC155587
         K19C05Q KC2019 02 12.95524710 42 20.56 +12 44 49.6          20.1 GVEC155587
         K19C05Q KC2019 02 12.95721810 42 16.67 +12 46 14.3          19.9 GVEC155587
         K19C05Q KC2019 02 12.97378310 41 45.63 +12 58 11.4          19.0 GVEC155C95
         K19C05Q KC2019 02 12.99134910 41 11.04 +13 10 34.4          19.6 GVEC155C95
         K19C05Q KC2019 02 13.08475 10 38 10.02 +14 14 04.5                VEC155204
         K19C05Q KC2019 02 13.09312 10 37 54.28 +14 19 37.2          19.6 GVEC155204
         K19C05Q KC2019 02 13.10142 10 37 38.71 +14 25 06.1                VEC155204
         K19C05Q KC2019 02 14.00230810 15 22.40 +22 28 48.9          20.1 GVEC155J95
         K19C05Q KC2019 02 14.01242910 15 08.45 +22 33 11.8          20.0 GVEC155J95
         K19C05Q KC2019 02 14.02336110 14 53.49 +22 37 52.4          20.0 GVEC155J95
    
    Observer details:
    204 Schiaparelli Observatory.  Observer L. Buzzi.  0.84-m f/3.5 reflector +
        CCD.
    587 Sormano.  Observers A. Fumagalli, P. Sicoli, A. Testa.  Measurer
        P. Sicoli.  0.5-m f/6.8 reflector + CCD.
    C95 SATINO Remote Observatory, Haute Provence.  Observer J. Jahn.  0.60-m
        f/3.2 Newtonian reflector + CCD.
    G96 Mt. Lemmon Survey.  Observers R. A. Kowalski, T. A. Pruyne.  Measurers
        B. M. Africano, E. J. Christensen, G. A. Farneth, D. C. Fuls, A. R. Gibbs,
        A. D. Grauer, H. Groeller, R. A. Kowalski, S. M. Larson, G. J. Leonard,
        T. A. Pruyne, R. L. Seaman, F. C. Shelly.  1.5-m reflector + 10K CCD.
    I52 Steward Observatory, Mt. Lemmon Station.  Observer E. J. Christensen.
        Measurers B. M. Africano, E. J. Christensen, G. A. Farneth, D. C. Fuls,
        A. R. Gibbs, A. D. Grauer, H. Groeller, R. A. Kowalski, S. M. Larson,
        G. J. Leonard, T. A. Pruyne, R. L. Seaman, F. C. Shelly.  1.0-m reflector
        + CCD.
    J95 Great Shefford.  Observer P. Birtwhistle.  0.41-m f/6.3
        Schmidt-Cassegrain + CCD.
    L01 Visnjan Observatory, Tican.  Observer K. Korlevic.  1.0-m f/2.9 reflector
        + CCD.
    V03 Big Water.  Observer D. Rankin.  0.30-m reflector + CCD.
    
    Orbital elements:
    2019 CQ5                                                 Earth MOID = 0.0084 AU
    Epoch 2019 Apr. 27.0 TT = JDT 2458600.5                 MPC
    M 181.68008              (2000.0)            P               Q
    n   1.19296495     Peri.  228.96340     +0.96683815     -0.22475547
    a   0.8804761      Node   143.54268     +0.24819577     +0.93881668
    e   0.3588532      Incl.   11.77677     -0.06019018     +0.26097552
    P   0.83           H   27.5           G   0.15           U   7
    Residuals in seconds of arc
    190212 G96  1.1+  1.8-    190212 I52  0.0   0.1-    190212 587  0.4-  0.4-
    190212 G96  0.4-  0.0     190212 I52  0.2-  0.3-    190212 587  0.4-  0.1-
    190212 G96  0.2-  0.8+    190212 I52  0.2+  0.1+    190212 C95  0.6+  0.1-
    190212 V03  0.3-  0.0     190212 I52  0.3-  0.1+    190212 C95  0.7-  1.1+
    190212 V03  0.1-  0.4+    190212 L01  0.3-  0.4+    190213 204  0.3+  0.2-
    190212 V03  0.5-  0.3+    190212 L01  0.3+  0.2+    190213 204  0.2+  0.5-
    190212 I52  0.1+  0.1+    190212 L01  0.2-  0.0     190213 204  0.3-  0.2-
    190212 I52  0.5+  0.4+    190212 L01  0.2+  0.3-    190214 J95  0.4-  0.4-
    190212 I52  0.1+  0.2+    190212 L01  0.0   0.0     190214 J95  0.3-  0.5+
    190212 I52  0.0   0.3+    190212 587  0.2-  0.4-    190214 J95  0.6+  0.0
    
    Ephemeris:
    2019 CQ5                 a,e,i = 0.88, 0.36, 12                  q = 0.5645
    Date    TT    R. A. (2000) Decl.     Delta      r     Elong.  Phase     V
    2019 01 15    20 02 23.3 -48 15 11   0.1811  0.8267    27.2   147.0    31.3
    ...
    2019 01 30    19 25 22.0 -53 43 21   0.07850 0.9255    39.3   137.7    28.4
    ...
    2019 02 07    17 10 16.0 -58 31 17   0.02895 0.9732    62.6   115.9    24.3
    ...
    2019 02 13    10 40 51.0 +13 19 53   0.01953 1.0062   166.2    13.5    19.7
    2019 02 14    10 15 23.3 +22 30 24   0.02451 1.0114   168.7    11.0    20.2
    2019 02 15    09 57 08.3 +28 17 32   0.03009 1.0166   164.6    15.0    20.8
    ...
    2019 02 21    09 08 59.5 +40 09 10   0.06751 1.0462   147.2    30.8    23.1
    ...
    2019 03 01    08 51 45.5 +43 10 13   0.1204  1.0816   136.8    38.8    24.6
    ...
    2019 03 16    08 50 47.2 +43 11 25   0.2237  1.1352   124.1    46.5    26.3
    
    A. U. Tomatic                (C) Copyright 2019 MPC           M.P.E.C. 2019-C155
    

    Read MPEC 2019-C154 Read MPEC 2019-C156


    MPEC number:

    Enter an MPEC number in one of the following forms:

    • 1997-B01 (the full form)
    • J97B01 (the packed version of the full form)
    • B01 (the abbreviated form)